Time,TemperatureF,DewpointF,PressureIn,WindDirection,WindDirectionDegrees,WindSpeedMPH,WindSpeedGustMPH,Humidity,HourlyPrecipIn,Conditions,Clouds,dailyrainin,SoftwareType,DateUTC
2013-01-24 00:02:00,48.0,45.0,29.58,East,87,3.0,6.0,90,0.00,,,0.89,,2013-01-23 23:02:00,
2013-01-24 00:12:00,48.0,45.0,29.58,East,87,3.0,6.0,90,0.00,,,0.89,,2013-01-23 23:12:00,
2013-01-24 00:22:00,48.0,45.0,29.56,East,89,4.0,5.0,89,0.00,,,0.89,,2013-01-23 23:22:00,
2013-01-24 00:32:00,49.0,46.0,29.56,East,84,3.0,9.0,89,0.01,,,0.90,,2013-01-23 23:32:00,
2013-01-24 00:42:00,49.0,46.0,29.56,East,84,3.0,9.0,89,0.01,,,0.90,,2013-01-23 23:42:00,
2013-01-24 00:53:00,49.0,46.0,29.54,ENE,61,8.0,9.0,89,0.01,,,0.90,,2013-01-23 23:53:00,
2013-01-24 01:02:00,49.0,46.0,29.53,East,100,4.0,9.0,89,0.01,,,0.90,,2013-01-24 00:02:00,
2013-01-24 01:11:00,49.0,46.0,29.53,East,100,4.0,9.0,89,0.01,,,0.90,,2013-01-24 00:11:00,
2013-01-24 01:22:00,49.0,46.0,29.52,ESE,110,3.0,4.0,89,0.01,,,0.90,,2013-01-24 00:22:00,
2013-01-24 01:32:00,49.0,46.0,29.51,ESE,110,0.0,3.0,89,0.01,,,0.90,,2013-01-24 00:32:00,
2013-01-24 01:42:00,49.0,46.0,29.51,ESE,110,0.0,3.0,89,0.01,,,0.90,,2013-01-24 00:42:00,
2013-01-24 01:53:00,49.0,46.0,29.50,NE,40,3.0,7.0,90,0.00,,,0.90,,2013-01-24 00:53:00,
2013-01-24 02:02:00,49.0,46.0,29.49,SSE,167,3.0,4.0,90,0.03,,,0.93,,2013-01-24 01:02:00,
2013-01-24 02:12:00,49.0,46.0,29.49,SSE,167,3.0,4.0,90,0.03,,,0.93,,2013-01-24 01:12:00,
2013-01-24 02:22:00,49.0,46.0,29.49,WNW,286,0.0,3.0,88,0.03,,,0.93,,2013-01-24 01:22:00,
2013-01-24 02:32:00,49.0,46.0,29.49,WSW,237,4.0,6.0,88,0.03,,,0.93,,2013-01-24 01:32:00,
2013-01-24 02:42:00,49.0,46.0,29.49,WSW,237,4.0,6.0,88,0.03,,,0.93,,2013-01-24 01:42:00,
2013-01-24 02:52:00,50.0,46.0,29.47,NNW,339,3.0,4.0,85,0.03,,,0.93,,2013-01-24 01:52:00,
2013-01-24 03:02:00,49.0,45.0,29.47,NNW,338,3.0,3.0,86,0.02,,,0.93,,2013-01-24 02:02:00,
2013-01-24 03:11:00,49.0,45.0,29.47,NNW,338,3.0,3.0,86,0.02,,,0.93,,2013-01-24 02:11:00,
2013-01-24 03:22:00,49.0,45.0,29.46,NNW,343,2.0,4.0,87,0.03,,,0.96,,2013-01-24 02:22:00,
2013-01-24 03:32:00,49.0,45.0,29.45,NNW,344,3.0,4.0,87,0.04,,,0.97,,2013-01-24 02:32:00,
2013-01-24 03:42:00,49.0,45.0,29.45,NNW,344,3.0,4.0,87,0.04,,,0.97,,2013-01-24 02:42:00,
2013-01-24 03:52:00,49.0,45.0,29.45,NNW,344,3.0,4.0,87,0.04,,,0.97,,2013-01-24 02:52:00,
2013-01-24 04:02:00,50.0,46.0,29.45,WSW,244,5.0,11.0,86,0.05,,,0.98,,2013-01-24 03:02:00,
2013-01-24 04:11:00,50.0,46.0,29.45,WSW,244,5.0,11.0,86,0.05,,,0.98,,2013-01-24 03:11:00,
2013-01-24 04:22:00,49.0,45.0,29.44,West,267,0.0,3.0,86,0.03,,,0.99,,2013-01-24 03:22:00,
2013-01-24 04:32:00,49.0,45.0,29.44,West,267,1.0,3.0,86,0.03,,,0.99,,2013-01-24 03:32:00,
2013-01-24 04:42:00,49.0,45.0,29.44,West,267,1.0,3.0,86,0.03,,,0.99,,2013-01-24 03:42:00,
2013-01-24 04:52:00,49.0,45.0,29.44,SSW,209,3.0,6.0,87,0.01,,,0.99,,2013-01-24 03:52:00,
2013-01-24 05:02:00,48.0,44.0,29.44,WNW,294,0.0,6.0,86,0.02,,,1.00,,2013-01-24 04:02:00,
2013-01-24 05:12:00,48.0,44.0,29.44,WNW,294,0.0,6.0,86,0.02,,,1.00,,2013-01-24 04:12:00,
2013-01-24 05:22:00,47.0,44.0,29.44,NW,313,3.0,7.0,89,0.11,,,1.09,,2013-01-24 04:22:00,
2013-01-24 05:32:00,47.0,44.0,29.44,NW,314,1.0,3.0,89,0.16,,,1.14,,2013-01-24 04:32:00,
2013-01-24 05:42:00,47.0,44.0,29.44,NW,314,1.0,3.0,89,0.16,,,1.14,,2013-01-24 04:42:00,
2013-01-24 05:52:00,47.0,45.0,29.43,ESE,107,4.0,9.0,91,0.22,,,1.20,,2013-01-24 04:52:00,
2013-01-24 06:12:00,46.0,44.0,29.42,East,101,4.0,10.0,91,0.25,,,1.23,,2013-01-24 05:12:00,
2013-01-24 06:22:00,46.0,44.0,29.42,East,83,3.0,6.0,91,0.22,,,1.25,,2013-01-24 05:22:00,
2013-01-24 06:32:00,46.0,44.0,29.42,East,83,3.0,3.0,91,0.14,,,1.25,,2013-01-24 05:32:00,
2013-01-24 06:42:00,46.0,44.0,29.42,East,83,3.0,3.0,91,0.14,,,1.25,,2013-01-24 05:42:00,
2013-01-24 06:53:00,46.0,44.0,29.42,ESE,118,6.0,6.0,91,0.08,,,1.26,,2013-01-24 05:53:00,
2013-01-24 07:02:00,46.0,44.0,29.42,East,83,6.0,7.0,91,0.05,,,1.26,,2013-01-24 06:02:00,
2013-01-24 07:12:00,46.0,44.0,29.42,East,83,6.0,7.0,91,0.05,,,1.26,,2013-01-24 06:12:00,
2013-01-24 07:22:00,46.0,44.0,29.42,ESE,113,3.0,7.0,91,0.01,,,1.26,,2013-01-24 06:22:00,
2013-01-24 07:32:00,46.0,44.0,29.42,East,92,5.0,7.0,91,0.02,,,1.27,,2013-01-24 06:32:00,
2013-01-24 07:42:00,46.0,44.0,29.42,East,92,5.0,7.0,91,0.02,,,1.27,,2013-01-24 06:42:00,
2013-01-24 07:52:00,46.0,44.0,29.42,East,93,4.0,8.0,91,0.03,,,1.29,,2013-01-24 06:52:00,
2013-01-24 08:02:00,46.0,44.0,29.42,ESE,103,3.0,8.0,92,0.03,,,1.29,,2013-01-24 07:02:00,
2013-01-24 08:11:00,46.0,44.0,29.42,ESE,103,3.0,8.0,92,0.03,,,1.29,,2013-01-24 07:11:00,
2013-01-24 08:22:00,47.0,45.0,29.42,East,101,7.0,9.0,91,0.03,,,1.29,,2013-01-24 07:22:00,
2013-01-24 08:32:00,46.0,44.0,29.42,ESE,120,3.0,10.0,92,0.03,,,1.29,,2013-01-24 07:32:00,
2013-01-24 08:42:00,46.0,44.0,29.42,ESE,120,3.0,10.0,92,0.03,,,1.29,,2013-01-24 07:42:00,
2013-01-24 08:52:00,47.0,45.0,29.42,ENE,74,6.0,8.0,92,0.00,,,1.26,,2013-01-24 07:52:00,
2013-01-24 09:01:00,47.0,45.0,29.42,East,93,6.0,7.0,91,0.00,,,1.17,,2013-01-24 08:01:00,
2013-01-24 09:11:00,47.0,45.0,29.42,East,93,6.0,7.0,91,0.00,,,1.17,,2013-01-24 08:11:00,
2013-01-24 09:22:00,47.0,45.0,29.41,ENE,74,4.0,8.0,91,0.00,,,1.17,,2013-01-24 08:22:00,
2013-01-24 09:32:00,47.0,45.0,29.41,East,98,6.0,10.0,91,0.00,,,1.17,,2013-01-24 08:32:00,
2013-01-24 09:42:00,47.0,45.0,29.41,East,98,6.0,10.0,91,0.00,,,1.17,,2013-01-24 08:42:00,
2013-01-24 09:53:00,48.0,45.0,29.40,East,97,4.0,10.0,89,0.00,,,1.17,,2013-01-24 08:53:00,
2013-01-24 10:02:00,48.0,45.0,29.40,East,101,7.0,10.0,89,0.00,,,1.17,,2013-01-24 09:02:00,
2013-01-24 10:12:00,48.0,45.0,29.40,East,101,7.0,10.0,89,0.00,,,1.17,,2013-01-24 09:12:00,
2013-01-24 10:22:00,48.0,45.0,29.40,East,98,6.0,10.0,88,0.00,,,1.17,,2013-01-24 09:22:00,
2013-01-24 10:32:00,48.0,44.0,29.41,East,99,6.0,8.0,87,0.00,,,1.17,,2013-01-24 09:32:00,
2013-01-24 10:42:00,48.0,44.0,29.41,East,99,6.0,8.0,87,0.00,,,1.17,,2013-01-24 09:42:00,
2013-01-24 10:53:00,48.0,44.0,29.40,ESE,103,6.0,8.0,87,0.00,,,1.17,,2013-01-24 09:53:00,
2013-01-24 11:02:00,48.0,44.0,29.40,ESE,111,3.0,6.0,86,0.00,,,1.17,,2013-01-24 10:02:00,
2013-01-24 11:11:00,48.0,44.0,29.40,ESE,111,3.0,6.0,86,0.00,,,1.17,,2013-01-24 10:11:00,
2013-01-24 11:22:00,49.0,45.0,29.39,ESE,112,3.0,4.0,86,0.00,,,1.17,,2013-01-24 10:22:00,
2013-01-24 11:32:00,49.0,45.0,29.39,ESE,117,3.0,6.0,87,0.01,,,1.18,,2013-01-24 10:32:00,
2013-01-24 11:42:00,49.0,45.0,29.39,ESE,117,3.0,6.0,87,0.01,,,1.18,,2013-01-24 10:42:00,
2013-01-24 11:52:00,49.0,45.0,29.39,ESE,118,0.0,3.0,87,0.01,,,1.17,,2013-01-24 10:52:00,
2013-01-24 12:02:00,49.0,45.0,29.39,ESE,118,0.0,0.0,87,0.01,,,1.16,,2013-01-24 11:02:00,
2013-01-24 12:11:00,49.0,45.0,29.39,ESE,118,0.0,0.0,87,0.01,,,1.16,,2013-01-24 11:11:00,
2013-01-24 12:22:00,49.0,46.0,29.38,ESE,118,2.0,2.0,88,0.01,,,1.14,,2013-01-24 11:22:00,
2013-01-24 12:32:00,49.0,46.0,29.37,ESE,118,0.0,0.0,88,0.00,,,1.14,,2013-01-24 11:32:00,
2013-01-24 12:42:00,49.0,46.0,29.37,ESE,118,0.0,0.0,88,0.00,,,1.14,,2013-01-24 11:42:00,
2013-01-24 12:53:00,49.0,46.0,29.37,ESE,119,0.0,2.0,88,0.01,,,1.15,,2013-01-24 11:53:00,
2013-01-24 13:02:00,49.0,46.0,29.37,ESE,119,2.0,3.0,88,0.02,,,1.16,,2013-01-24 12:02:00,
2013-01-24 13:12:00,49.0,46.0,29.37,ESE,119,2.0,3.0,88,0.02,,,1.16,,2013-01-24 12:12:00,
2013-01-24 13:22:00,49.0,46.0,29.37,NE,52,2.0,4.0,89,0.03,,,1.17,,2013-01-24 12:22:00,
2013-01-24 13:32:00,49.0,46.0,29.37,NE,52,2.0,3.0,90,0.03,,,1.16,,2013-01-24 12:32:00,
2013-01-24 13:42:00,49.0,46.0,29.37,NE,52,2.0,3.0,90,0.03,,,1.16,,2013-01-24 12:42:00,
2013-01-24 13:53:00,49.0,46.0,29.36,NE,46,1.0,3.0,91,0.02,,,1.16,,2013-01-24 12:53:00,
2013-01-24 14:02:00,49.0,46.0,29.36,NE,46,1.0,3.0,91,0.02,,,1.16,,2013-01-24 13:02:00,
2013-01-24 14:12:00,49.0,46.0,29.36,NE,46,1.0,3.0,91,0.02,,,1.16,,2013-01-24 13:12:00,
2013-01-24 14:22:00,50.0,47.0,29.36,NE,46,1.0,1.0,90,0.00,,,1.16,,2013-01-24 13:22:00,
2013-01-24 14:32:00,50.0,47.0,29.36,North,355,3.0,6.0,89,0.00,,,1.16,,2013-01-24 13:32:00,
2013-01-24 14:42:00,50.0,47.0,29.36,North,355,3.0,6.0,89,0.00,,,1.16,,2013-01-24 13:42:00,
2013-01-24 14:53:00,52.0,49.0,29.36,North,360,2.0,3.0,88,0.00,,,0.95,,2013-01-24 13:53:00,
2013-01-24 15:02:00,52.0,47.0,29.36,West,259,2.0,6.0,84,0.00,,,0.82,,2013-01-24 14:02:00,
2013-01-24 15:11:00,52.0,47.0,29.36,West,259,2.0,6.0,84,0.00,,,0.82,,2013-01-24 14:11:00,
2013-01-24 15:22:00,51.0,46.0,29.37,West,275,5.0,6.0,84,0.00,,,0.69,,2013-01-24 14:22:00,
2013-01-24 15:32:00,52.0,47.0,29.37,WNW,290,4.0,5.0,82,0.00,,,0.62,,2013-01-24 14:32:00,
2013-01-24 15:42:00,52.0,47.0,29.37,WNW,290,4.0,5.0,82,0.00,,,0.62,,2013-01-24 14:42:00,
2013-01-24 15:53:00,52.0,47.0,29.37,West,272,4.0,8.0,82,0.00,,,0.55,,2013-01-24 14:53:00,
2013-01-24 16:02:00,52.0,47.0,29.37,West,259,5.0,6.0,82,0.00,,,0.53,,2013-01-24 15:02:00,
2013-01-24 16:12:00,52.0,47.0,29.37,West,259,5.0,6.0,82,0.00,,,0.53,,2013-01-24 15:12:00,
2013-01-24 16:22:00,52.0,46.0,29.38,WSW,250,4.0,6.0,81,0.00,,,0.53,,2013-01-24 15:22:00,
2013-01-24 16:32:00,52.0,46.0,29.38,WSW,250,4.0,6.0,81,0.00,,,0.53,,2013-01-24 15:32:00,
2013-01-24 16:42:00,52.0,47.0,29.38,WSW,256,5.0,5.0,82,0.00,,,0.53,,2013-01-24 15:42:00,
2013-01-24 16:53:00,51.0,46.0,29.39,West,267,3.0,5.0,83,0.00,,,0.52,,2013-01-24 15:53:00,
2013-01-24 17:02:00,51.0,46.0,29.39,WNW,290,4.0,6.0,84,0.00,,,0.50,,2013-01-24 16:02:00,
2013-01-24 17:11:00,51.0,46.0,29.39,WNW,290,4.0,6.0,84,0.00,,,0.50,,2013-01-24 16:11:00,
2013-01-24 17:22:00,50.0,46.0,29.39,WNW,290,0.0,1.0,85,0.00,,,0.49,,2013-01-24 16:22:00,
2013-01-24 17:32:00,50.0,46.0,29.39,WNW,290,0.0,0.0,85,0.00,,,0.49,,2013-01-24 16:32:00,
2013-01-24 17:42:00,50.0,46.0,29.39,WNW,290,0.0,0.0,85,0.00,,,0.49,,2013-01-24 16:42:00,
2013-01-24 18:01:00,49.0,45.0,29.41,WNW,290,0.0,2.0,86,0.02,,,0.51,,2013-01-24 17:01:00,
2013-01-24 18:11:00,49.0,45.0,29.41,WNW,290,0.0,2.0,86,0.02,,,0.51,,2013-01-24 17:11:00,
2013-01-24 18:21:00,49.0,46.0,29.41,WNW,290,0.0,0.0,88,0.02,,,0.51,,2013-01-24 17:21:00,
2013-01-24 18:31:00,49.0,46.0,29.42,WNW,290,0.0,2.0,88,0.02,,,0.51,,2013-01-24 17:31:00,
2013-01-24 18:42:00,49.0,46.0,29.42,WNW,290,0.0,2.0,88,0.02,,,0.51,,2013-01-24 17:42:00,
2013-01-24 18:52:00,50.0,46.0,29.42,WNW,288,0.0,3.0,87,0.02,,,0.51,,2013-01-24 17:52:00,
2013-01-24 19:01:00,50.0,46.0,29.43,South,179,3.0,6.0,86,0.00,,,0.51,,2013-01-24 18:01:00,
2013-01-24 19:11:00,49.0,44.0,29.43,SSW,204,2.0,6.0,84,0.00,,,0.51,,2013-01-24 18:11:00,
2013-01-24 19:21:00,49.0,44.0,29.43,SSW,204,2.0,6.0,84,0.00,,,0.51,,2013-01-24 18:21:00,
2013-01-24 19:31:00,49.0,44.0,29.43,SSW,204,0.0,2.0,84,0.00,,,0.51,,2013-01-24 18:31:00,
2013-01-24 19:41:00,49.0,44.0,29.43,SSW,204,0.0,2.0,84,0.00,,,0.51,,2013-01-24 18:41:00,
2013-01-24 19:53:00,49.0,44.0,29.43,SSW,204,3.0,3.0,83,0.00,,,0.51,,2013-01-24 18:53:00,
2013-01-24 20:01:00,49.0,44.0,29.43,SSW,204,1.0,3.0,83,0.00,,,0.51,,2013-01-24 19:01:00,
2013-01-24 20:11:00,49.0,44.0,29.44,SSW,204,1.0,2.0,84,0.00,,,0.51,,2013-01-24 19:11:00,
2013-01-24 20:21:00,49.0,44.0,29.44,SSW,204,1.0,2.0,84,0.00,,,0.51,,2013-01-24 19:21:00,
2013-01-24 20:32:00,49.0,44.0,29.43,SSW,204,2.0,2.0,84,0.00,,,0.51,,2013-01-24 19:32:00,
2013-01-24 20:41:00,49.0,45.0,29.43,South,180,3.0,4.0,85,0.00,,,0.51,,2013-01-24 19:41:00,
2013-01-24 20:52:00,49.0,45.0,29.43,South,180,3.0,4.0,85,0.00,,,0.51,,2013-01-24 19:52:00,
2013-01-24 21:01:00,49.0,45.0,29.44,SW,225,8.0,9.0,86,0.00,,,0.51,,2013-01-24 20:01:00,
2013-01-24 21:11:00,48.0,43.0,29.44,WSW,244,1.0,2.0,84,0.02,,,0.53,,2013-01-24 20:11:00,
2013-01-24 21:21:00,48.0,43.0,29.44,WSW,244,1.0,2.0,84,0.02,,,0.53,,2013-01-24 20:21:00,
2013-01-24 21:32:00,48.0,43.0,29.44,WSW,244,2.0,3.0,84,0.02,,,0.53,,2013-01-24 20:32:00,
2013-01-24 21:42:00,48.0,44.0,29.43,WNW,284,1.0,3.0,85,0.02,,,0.53,,2013-01-24 20:42:00,
2013-01-24 21:52:00,48.0,44.0,29.43,WNW,284,1.0,3.0,85,0.02,,,0.53,,2013-01-24 20:52:00,
2013-01-24 22:01:00,48.0,44.0,29.44,WNW,284,1.0,2.0,85,0.02,,,0.51,,2013-01-24 21:01:00,
2013-01-24 22:11:00,48.0,43.0,29.44,NE,41,1.0,3.0,84,0.00,,,0.49,,2013-01-24 21:11:00,
2013-01-24 22:21:00,48.0,43.0,29.44,NE,41,1.0,3.0,84,0.00,,,0.49,,2013-01-24 21:21:00,
2013-01-24 22:32:00,49.0,44.0,29.43,NE,41,1.0,3.0,84,0.00,,,0.49,,2013-01-24 21:32:00,
2013-01-24 22:42:00,49.0,44.0,29.43,NE,41,1.0,3.0,84,0.00,,,0.49,,2013-01-24 21:42:00,
2013-01-24 22:52:00,49.0,44.0,29.43,NE,41,2.0,3.0,83,0.00,,,0.49,,2013-01-24 21:52:00,
2013-01-24 23:02:00,49.0,44.0,29.44,NE,41,1.0,2.0,82,0.00,,,0.49,,2013-01-24 22:02:00,
2013-01-24 23:11:00,49.0,44.0,29.44,NE,41,1.0,2.0,82,0.00,,,0.49,,2013-01-24 22:11:00,
2013-01-24 23:21:00,49.0,44.0,29.43,ENE,74,2.0,3.0,84,0.01,,,0.50,,2013-01-24 22:21:00,
2013-01-24 23:31:00,48.0,44.0,29.43,East,86,4.0,6.0,85,0.01,,,0.50,,2013-01-24 22:31:00,
2013-01-24 23:41:00,48.0,44.0,29.43,East,86,4.0,6.0,85,0.01,,,0.50,,2013-01-24 22:41:00,
2013-01-24 23:52:00,48.0,44.0,29.43,East,79,3.0,5.0,86,0.01,,,0.50,,2013-01-24 22:52:00,